N0RAP Weather Reports


Display with metric or nautical units.
time (UTC)temp
F
wind
direction
speed
MPH
gust
MPH
rain 1hr
in
rain 24hr
in
rain mn
in
humidity
%
barometer
mb
20260505070043 40 0 0.0 1.0 0.01 0.04 0.01 93 1016.1
20260505064548 40 0 0.0 1.0 0.01 0.04 0.01 93 1016.0
20260505063042 40 349 0.0 2.0 0.02 0.04 0.01 92 1016.1
20260505061546 40 45 1.0 2.0 0.01 0.03 0.00 92 1015.9
20260505060042 40 0 1.0 3.0 0.01 0.03 0.00 91 1016.2
20260505054553 40 0 0.0 2.0 0.01 0.03 0.03 90 1016.5
20260505053054 41 0 0.0 2.0 0.00 0.02 0.02 86 1016.5
20260505051544 41 0 0.0 3.0 0.00 0.02 0.02 85 1016.5
20260505041543 41 25 0.0 2.0 0.00 0.02 0.02 82 1015.6
20260505040052 42 24 0.0 4.0 0.00 0.02 0.02 82 1015.5
20260505034546 42 353 1.0 5.0 0.00 0.02 0.02 83 1015.6
20260505033048 42 0 1.0 6.0 0.00 0.02 0.02 83 1015.6
20260505031542 42 347 2.0 7.0 0.00 0.02 0.02 82 1015.5
20260505030043 42 320 2.0 5.0 0.00 0.02 0.02 82 1015.7
20260505024547 41 0 1.0 2.0 0.01 0.02 0.02 85 1015.6
20260505023055 41 0 0.0 4.0 0.02 0.02 0.02 84 1015.4
20260505021545 41 0 0.0 0.0 0.02 0.02 0.02 84 1015.5
20260505020046 42 0 0.0 2.0 0.02 0.02 0.02 82 1015.6
20260505014550 43 0 0.0 6.0 0.01 0.01 0.01 78 1015.6
20260505013044 47 278 2.0 5.0 0.00 0.00 0.00 63 1015.4
20260505011554 48 283 1.0 6.0 0.00 0.00 0.00 56 1015.4
20260505010051 49 285 3.0 9.0 0.00 0.00 0.00 54 1014.8
20260505004541 50 74 2.0 6.0 0.00 0.00 0.00 50 1013.9
20260505003046 51 307 4.0 13.0 0.00 0.00 0.00 47 1013.8
20260505001550 53 20 1.0 8.0 0.00 0.00 0.00 41 1013.5
20260505000044 54 357 2.0 8.0 0.00 0.00 0.00 42 1013.6
20260504234543 56 36 2.0 9.0 0.00 0.00 0.00 38 1013.3
20260504233043 56 1 2.0 10.0 0.00 0.00 0.00 38 1013.6
20260504231541 57 356 3.0 7.0 0.00 0.00 0.00 38 1013.5
20260504230047 57 329 0.0 2.0 0.00 0.00 0.00 40 1013.6
20260504224543 57 0 0.0 5.0 0.00 0.00 0.00 38 1013.6
20260504223040 58 43 0.0 2.0 0.00 0.00 0.00 34 1013.5
20260504221541 58 84 0.0 4.0 0.00 0.00 0.00 31 1013.3
20260504220048 58 207 1.0 6.0 0.00 0.00 0.00 37 1013.3
20260504214548 57 148 3.0 11.0 0.00 0.00 0.00 39 1014.0
20260504213050 59 35 2.0 7.0 0.00 0.00 0.00 29 1013.1
20260504211542 60 2 1.0 5.0 0.00 0.00 0.00 26 1013.0
20260504210051 61 345 0.0 4.0 0.00 0.00 0.00 26 1013.0
20260504204539 63 33 1.0 6.0 0.00 0.00 0.00 23 1013.2
20260504203038 63 22 1.0 8.0 0.00 0.00 0.00 25 1013.5
20260504201538 61 331 1.0 6.0 0.00 0.00 0.00 23 1013.8
20260504200049 61 66 1.0 5.0 0.00 0.00 0.00 24 1013.8
20260504194545 60 54 1.0 4.0 0.00 0.00 0.00 25 1013.8
20260504193040 61 333 4.0 8.0 0.00 0.00 0.00 22 1013.7
20260504191551 63 114 1.0 7.0 0.00 0.00 0.00 21 1013.9
20260504190043 65 214 2.0 5.0 0.00 0.00 0.00 20 1014.0
20260504184554 64 68 1.0 6.0 0.00 0.00 0.00 22 1014.2
20260504183049 64 163 2.0 9.0 0.00 0.00 0.00 25 1014.6
20260504181546 64 65 2.0 6.0 0.00 0.00 0.00 22 1014.7
20260504180039 59 293 0.0 3.0 0.00 0.00 0.00 28 1014.8
20260504174547 60 271 1.0 7.0 0.00 0.00 0.00 26 1015.1
20260504173043 60 318 2.0 6.0 0.00 0.00 0.00 31 1015.4
20260504171542 60 310 3.0 7.0 0.00 0.00 0.00 31 1015.6
20260504081542 44 0 0.0 1.0 0.00 0.00 0.00 42 1016.9